This is the latest recevied weather packets stored in our database for station/object KO4DYK. If no packets are shown the sender has not sent any weather packets the latest 10 day(s).
| Time | Temp. | Humidity | Pressure | Rain* | Wind** | Luminosity | Snow |
|---|---|---|---|---|---|---|---|
| 1787960384 | 28.89° C | 58% | 1018.6 hPa | 0 mm | - | 30 W/m² | - |
| 1787960079 | 28.89° C | 56% | 1018.7 hPa | 0 mm | - | 33 W/m² | - |
| 1787959774 | 29.44° C | 55% | 1018.6 hPa | 0 mm | - | 36 W/m² | - |
| 1787959469 | 29.44° C | 53% | 1018.6 hPa | 0 mm | - | 39 W/m² | - |
| 1787959164 | 29.44° C | 53% | 1018.7 hPa | 0 mm | - | 42 W/m² | - |
| 1787958859 | 29.44° C | 53% | 1018.5 hPa | 0 mm | - | 52 W/m² | - |
| 1787958554 | 29.44° C | 55% | 1018.5 hPa | 0 mm | - | 52 W/m² | - |
| 1787958251 | 30° C | 53% | 1018.5 hPa | 0 mm | - | 52 W/m² | - |
| 1787957949 | 30° C | 52% | 1018.4 hPa | 0 mm | - | 54 W/m² | - |
| 1787957649 | 30° C | 52% | 1018.5 hPa | 0 mm | - | 56 W/m² | - |
| 1787957345 | 30° C | 51% | 1018.5 hPa | 0 mm | - | 59 W/m² | - |
| 1787957044 | 30° C | 50% | 1018.5 hPa | 0 mm | - | 62 W/m² | - |
| 1787956742 | 30° C | 52% | 1018.5 hPa | 0 mm | - | 63 W/m² | - |
| 1787956439 | 30.56° C | 52% | 1018.5 hPa | 0 mm | - | 72 W/m² | - |
| 1787956134 | 30.56° C | 50% | 1018.4 hPa | 0 mm | - | 155 W/m² | - |
| 1787955829 | 30.56° C | 50% | 1018.2 hPa | 0 mm | - | 192 W/m² | - |
| 1787955524 | 30.56° C | 49% | 1018.4 hPa | 0 mm | - | 241 W/m² | - |
| 1787955224 | 31.67° C | 48% | 1018.4 hPa | 0 mm | - | 250 W/m² | - |
| 1787954928 | 32.22° C | 47% | 1018.2 hPa | 0 mm | - | 293 W/m² | - |
| 1787954615 | 31.11° C | 49% | 1018.4 hPa | 0 mm | - | 362 W/m² | - |
| 1787954314 | 31.11° C | 49% | 1018.4 hPa | 0 mm | - | 381 W/m² | - |
| 1787954010 | 31.67° C | 48% | 1018.2 hPa | 0 mm | - | 390 W/m² | - |
| 1787953708 | 31.67° C | 47% | 1018.4 hPa | 0 mm | - | 368 W/m² | - |
| 1787953404 | 31.67° C | 48% | 1018.4 hPa | 0 mm | - | 370 W/m² | - |
| 1787953102 | 31.67° C | 47% | 1018.5 hPa | 0 mm | - | 396 W/m² | - |
* Rain latest hour (hover to see other rain measurements)
** Current wind speed in m/s (hover to see current wind gust speed)